Location: Sungai Bunut
(2.6333°N, 113.7333°E)
Time: 00:35:36
(UTC+00:00)

deb Delta 139 - Pass Details

Date: 15 August 2022
Orbit: 843 x 925 km, 99.2° (Epoch: 28 September)

Event Time Altitude Azimuth Distance (km) Brightness Sun altitude
Rises 12:06:17 0° 16° (NNE) 3,487 ? -22.7°
Reaches altitude 10° 12:08:42 10° 18° (NNE) 2,537 ? -23.3°
Maximum altitude 12:14:20 74° 103° (ESE) 904 ? -24.6°
Drops below altitude 10° 12:19:51 10° 188° (S) 2,493 ? -25.9°
Sets 12:22:12 0° 189° (S) 3,421 ? -26.5°
